Regional Weather Roundup
Issued by NWS Cleveland, OH

Home | Current Version | Previous Version | Text Only | Print | Product List | Glossary On
Versions: 1 2 3 4 5 6 7 8 9 10 11 12 13 14 15 16 17 18 19 20 21 22 23 24 25 26 27 28 29 30 31 32 33 34 35 36 37 38 39 40 41 42 43 44 45 46 47 48 49 50
000
ASUS41 KCLE 280310
RWRCLE
OHIO REGIONAL WEATHER ROUNDUP
NATIONAL WEATHER SERVICE WILMINGTON, OH
1000 PM EST THU NOV 27 2014

NOTE: "FAIR" INDICATES FEW OR NO CLOUDS BELOW 12,000 FEET WITH NO
SIGNIFICANT WEATHER AND/OR OBSTRUCTIONS TO VISIBILITY.

OHZ001>008-015>018-024>027-034-035-043-044-280400-
   NORTHWEST OHIO

CITY           SKY/WX    TMP DP  RH WIND       PRES   REMARKS
DEFIANCE       CLOUDY    27  18  69 NW10      30.34R WCI  17
FINDLAY        CLOUDY    29  23  78 W14       30.30R WCI  18
TOLEDO EXPRESS CLOUDY    27  21  78 NW13      30.31R WCI  16
TOLEDO METCALF CLOUDY    28  22  78 NW9       30.31R WCI  19
LIMA           FLURRIES  28  22  78 W15       30.32R WCI  16
$$

OHZ009>014-019>023-028>033-038-089-280400-
   NORTHEAST OHIO

CITY           SKY/WX    TMP DP  RH WIND       PRES   REMARKS
CLE-HOPKINS    LGT SNOW  29  26  89 NW12      30.26R FOG     WCI  19
CLE-LAKEFRONT  LGT SNOW  31  26  82 N24G31    30.22R WCI  17
CUY CO. ARPT   FLURRIES  32  27  80 N14       30.21R WCI  22
LORAIN-ELYRIA  LGT SNOW  28  25  88 N3        30.26R FOG
ASHTABULA      LGT SNOW  29  23  78 NW7       30.20S WCI  22
AKRON-CANTON   LGT SNOW  30  26  85 W12       30.20S FOG     WCI  20
WOOSTER        MOCLDY    28  22  78 NW16      30.24R WCI  16
MANSFIELD      CLOUDY    28  25  88 W8        30.24S WCI  20
YOUNGSTOWN     LGT SNOW  28  26  92 W12       30.18R FOG     WCI  18
$$

OHZ042-051>053-060>062-070>072-077>081-280400-
  SOUTHWEST OHIO

CITY           SKY/WX    TMP DP  RH WIND       PRES   REMARKS
CINC-COVINGTON CLOUDY    29  17  61 NW7       30.39R WCI  22
CINC-LUNKEN    CLOUDY    29  20  69 MISG      30.42R
HAMILTON       CLOUDY    29  19  66 NW9       30.40S WCI  20
DAYTON         CLOUDY    27  19  72 W10       30.36R WCI  17
WRIGHT-PAT AFB FLURRIES  28  20  73 W10       30.36R WCI  18
DAYTON GENERAL CLOUDY    28  20  71 NW10      30.35S WCI  19
WILMINGTON     CLOUDY    27  18  69 W10       30.35R WCI  17
$$

OHZ036-037-039>041-045>050-054>059-063>069-073>076-082>088-280400-
  CENTRAL AND SOUTHEAST OHIO

CITY           SKY/WX    TMP DP  RH WIND       PRES   REMARKS
COLUMBUS       CLOUDY    29  21  72 W14       30.32R WCI  18
OSU AIRPORT    CLOUDY    29  22  75 W10       30.32R WCI  20
BOLTON FIELD   NOT AVBL
RICKENBACK AFB CLOUDY    29  21  73 W12       30.33S WCI  19
NEWARK         CLOUDY    30  21  69 W15       30.30R WCI  19
MARION         CLOUDY    29  23  78 W15       30.29R WCI  18
LANCASTER      CLOUDY    29  21  72 W13       30.33R WCI  19
ZANESVILLE     CLOUDY    29  25  85 W9        30.28S WCI  20
NEW PHILLY     CLOUDY    31  25  78 W7        30.25S WCI  24
$$


USA.gov is the U.S. government's official web portal to all federal, state and local government web resources and services.